Regional Weather Roundup
Issued by NWS Little Rock, AR

Home | Current Version | Previous Version | Graphics & Text | Print | Product List | Glossary On
Versions: 1 2 3 4 5 6 7 8 9 10 11 12 13 14 15 16 17 18 19 20 21 22 23 24 25 26 27 28 29 30 31 32 33 34 35 36 37 38 39 40 41 42 43 44 45 46 47 48 49 50
560
ASUS44 KLZK 190705
RWRLZK

WEATHER ROUNDUP FOR ARKANSAS
NATIONAL WEATHER SERVICE LITTLE ROCK AR
200 AM CDT THU OCT 19 2017

NOTE: "FAIR" INDICATES FEW OR NO CLOUDS BELOW 12,000 FEET WITH NO
SIGNIFICANT WEATHER AND/OR OBSTRUCTIONS TO VISIBILITY.

ARZ001-003-010-029-190800-
NORTHWEST ARKANSAS

CITY           SKY/WX    TMP DP  RH WIND       PRES   REMARKS
FAYETTEVILLE   CLEAR     50  47  89 CALM      30.13R
FORT SMITH     CLOUDY    57  52  83 NE3       30.13R
HARRISON       CLEAR     59  48  67 S7        30.13S
BENTONVILLE    CLEAR     50  47  89 CALM      30.15R
ROGERS         CLEAR     51  48  89 NE3       30.14R
SILOAM SPGS    CLEAR     49  44  83 CALM      30.13R
HIGHFILL       CLEAR     55  47  74 SW3       30.13R
$$

ARZ004-005-016-190800-
NORTH CENTRAL ARKANSAS

CITY           SKY/WX    TMP DP  RH WIND       PRES   REMARKS
BATESVILLE     CLEAR     61  48  62 S5        30.16S
FLIPPIN        CLEAR     51  48  89 NE3       30.14R
MTN HOME       CLEAR     56  49  77 S3        30.13R
$$

ARZ040-041-190800-
WEST CENTRAL ARKANSAS

CITY           SKY/WX    TMP DP  RH WIND       PRES   REMARKS
MENA           CLEAR     52  52 100 CALM      30.17R
$$

ARZ009-017-025-026-028-190800-
NORTHEAST ARKANSAS

CITY           SKY/WX    TMP DP  RH WIND       PRES   REMARKS
JONESBORO      CLEAR     53  48  83 S6        30.17S
NEWPORT        CLEAR     52  47  83 S9        30.17
WALNUT RIDGE   PTCLDY    55  48  77 S8        30.16S
BLYTHEVILLE    PTCLDY    55  49  80 S7        30.19S
$$

ARZ022-023-033-042-044-190800-
CENTRAL ARKANSAS

CITY           SKY/WX    TMP DP  RH WIND       PRES   REMARKS
LITTLE ROCK    CLEAR     52  50  93 CALM      30.17R
N LITTLE ROCK    N/A     60  49  65 S5        30.18R
JACKSONVILLE   CLEAR     46  46  98 CALM      30.15S
SEARCY         CLEAR     49  49 100 CALM      30.18
HOT SPRINGS    CLEAR     55  51  86 NE3       30.16S
RUSSELLVILLE   CLEAR     53  51  93 CALM      30.15R
CLINTON        FAIR      46  46 100 CALM      30.18R
$$

ARZ036-190800-
EAST ARKANSAS

CITY           SKY/WX    TMP DP  RH WIND       PRES   REMARKS
WEST MEMPHIS   CLEAR     51  50  96 CALM      30.18S
$$

ARZ050-053-066-070-073-190800-
SOUTHWEST ARKANSAS

CITY           SKY/WX    TMP DP  RH WIND       PRES   REMARKS
ARKADELPHIA    FAIR      46  45  96 CALM      30.17
CAMDEN         CLEAR     46  45  93 CALM      30.16S FOG
TEXARKANA      CLOUDY    59  53  80 SE5       30.15S
EL DORADO      CLEAR     49  49 100 CALM      30.16S
DE QUEEN       FOG       47  47 100 CALM      30.14R VSB 1/2
$$

ARZ056-057-069-190800-
SOUTHEAST ARKANSAS

CITY           SKY/WX    TMP DP  RH WIND       PRES   REMARKS
PINE BLUFF     CLEAR     49  47  93 CALM      30.17S
STUTTGART      CLEAR     54  49  83 SE5       30.17S
MONTICELLO     CLEAR     58  48  69 S5        30.17F

$$






USA.gov is the U.S. government's official web portal to all federal, state and local government web resources and services.